Regional Weather Roundup
Issued by NWS

Home | Current Version | Previous Version | Text Only | Print | Product List | Glossary Off
Versions: 1 2 3 4 5 6 7 8 9 10 11 12 13 14 15 16 17 18 19 20 21 22 23 24 25 26 27 28 29 30 31 32 33 34 35 36 37 38 39 40 41 42 43 44 45 46 47 48 49 50

000
ASUS43 KDTX 221910
RWRMI
MICHIGAN HOURLY REGIONAL WEATHER ROUNDUP
NATIONAL WEATHER SERVICE DETROIT/PONTIAC MI
ISSUED BY NATIONAL WEATHER SERVICE GRAND RAPIDS MI
200 PM EST WED FEB 22 2017

NOTE: "FAIR" INDICATES FEW OR NO CLOUDS BELOW 12,000 FEET WITH NO
SIGNIFICANT WEATHER AND/OR OBSTRUCTION TO VISIBILITY.

MIZ047>049-052>055-059>063-066>070-074>076-081>083-222000-
SOUTHEAST LOWER MICHIGAN

CITY           SKY/WX    TMP DP  RH WIND       PRES   REMARKS
ADRIAN         CLOUDY    61  53  75 SW10      29.79F
ALMA           CLOUDY    58  56  94 SW13G18   29.74S FOG
ANN ARBOR      CLOUDY    60  53  77 S13       29.78F
BAD AXE        MOSUNNY   63  54  74 W14       29.73F
DETROIT CITY   CLOUDY    61  54  77 SW9       29.78F
DETROIT        CLOUDY    63  53  70 SW16      29.79F HAZE
FLINT          CLOUDY    63  53  70 S13       29.75F
GROSSE ILE     CLOUDY    51  48  90 S7        29.78F FOG
HILLSDALE      CLOUDY    57  52  82 S9        29.77F
HOWELL         CLOUDY    59  52  76 S10       29.76F

CITY           SKY/WX    TMP DP  RH WIND       PRES   REMARKS
JACKSON        CLOUDY    59  52  77 SW10      29.77F
LANSING        CLOUDY    61  52  72 SW16      29.75F
MASON          CLOUDY    60  54  80 S5        29.76F
MONROE         CLOUDY    63  55  76 W9        29.78F
MT. CLEMENS    CLOUDY    63  55  74 SW12      29.76F HAZE
PONTIAC        CLOUDY    59  52  77 SW9       29.76F
PORT HOPE        N/A     62  53  72 W12       29.71F
PORT HURON     MOSUNNY   63  54  72 S10       29.77F
TRI CITIES     CLOUDY    61  55  81 SW14      29.72F
YPSILANTI      CLOUDY    61  54  77 SW13      29.79F
$$
MIZ043>046-050>051-056>058-064>065-071>073-077>080-222000-
SOUTHWEST LOWER MICHIGAN

CITY           SKY/WX    TMP DP  RH WIND       PRES   REMARKS
BATTLE CREEK   CLOUDY    59  54  83 SW15      29.77F
BENTON HARBOR  PTSUNNY   63  53  70 S15       29.74F HAZE
BIG RAPIDS     CLOUDY    54  53  96 S9        29.69F FOG
COLDWATER      CLOUDY    61  54  77 S7        29.77F
HOLLAND        MOSUNNY   58  53  84 SW10      29.73F HAZE
GRAND RAPIDS   PTSUNNY   62  53  72 SW12      29.73F
KALAMAZOO      CLOUDY    59  52  77 S13       29.76F HAZE
MARSHALL       CLOUDY    59  54  83 S7        29.76F HAZE
MOUNT PLEASANT PTSUNNY   56  56  98 S13G18    29.70F FOG
MUSKEGON       FOG       52  52 100 S15       29.72F VSB 1/2
STURGIS        CLOUDY    59  54  83 SW10      29.76F HAZE
$$
MIZ016>042-222000-
NORTHERN LOWER MICHIGAN

CITY           SKY/WX    TMP DP  RH WIND       PRES   REMARKS
ALPENA         MOSUNNY   59  49  69 S9        29.65F
BEAVER ISLAND  CLOUDY    46  46  98 SW10      29.61F FOG
BELLAIRE       MOSUNNY   63  47  57 S7        29.60F
CADILLAC       CLOUDY    57  50  78 S13       29.66S
CHARLEVOIX     CLOUDY    58  48  68 S10       29.63F
GAYLORD        MOSUNNY   57  42  57 SW15      29.62F
HOUGHTON LAKE  CLOUDY    53  50  89 S7        29.68F
MANISTEE       PTSUNNY   57  50  77 S14G25    29.63F
OSCODA         CLOUDY    55  51  87 SW15G21   29.68F
PELLSTON       CLOUDY    55  45  68 S7        29.61F
TRAVERSE CITY  PTSUNNY   65  47  52 S10G17    29.60F
LUDINGTON      CLOUDY    53  52  95 S18       29.67S FOG
$$
MIZ007>008-015-222000-
EASTERN UPPER MICHIGAN

CITY           SKY/WX    TMP DP  RH WIND       PRES   REMARKS
KINROSS        CLOUDY    48  44  86 S8        29.61F
MACKINAC ISLAN CLOUDY    43  41  91 CALM      29.61F
NEWBERRY       PTSUNNY   43  38  84 SE8       29.57F
S. S. MARIE    CLOUDY    45  38  76 SE7       29.62F
$$
MIZ004>006-011>014-085-222000-
CENTRAL UPPER MICHIGAN

CITY           SKY/WX    TMP DP  RH WIND       PRES   REMARKS
MANISTIQUE     FOG       37  36  97 S8        29.59R VSB 1/2 WCI  31
ESCANABA       MOSUNNY   45  39  79 S6        29.58F
MENOMINEE      MOSUNNY   56  42  59 SE10      29.57F
SAWYER-GWINN   CLOUDY    46  39  76 NE9       29.58S
$$
MIZ001>003-009>011-084-222000-
WESTERN UPPER MICHIGAN

CITY           SKY/WX    TMP DP  RH WIND       PRES   REMARKS
IRON MOUNTAIN  CLOUDY    54  38  54 NE6       29.53F
HOUGHTON       CLOUDY    40  33  76 NW5       29.58R
COPPER HARBOR    N/A     36  34  92 N9        29.60S WCI  29
IRONWOOD       CLOUDY    44  37  76 N5        29.59F
$$

ABBREVIATIONS USED IN REMARKS
   TC - TEMPERATURE IN CELSIUS
  WCI - WIND CHILL INDEX
   HX - HEAT INDEX
  VSB - VISIBILITY





USA.gov is the U.S. government's official web portal to all federal, state and local government web resources and services.